Time,TemperatureF,DewpointF,PressureIn,WindDirection,WindDirectionDegrees,WindSpeedMPH,WindSpeedGustMPH,Humidity,HourlyPrecipIn,Conditions,Clouds,dailyrainin,SoftwareType,DateUTC
2013-08-11 00:00:00,67.7,64.0,30.04,West,262,0.0,1.0,88,0.00,,SCT110,0.00,VWS V14.01,2013-08-11 05:00:00,
2013-08-11 00:01:00,67.7,64.0,30.04,West,263,0.0,0.0,88,0.00,,BKN120,0.00,VWS V14.01,2013-08-11 05:01:00,
2013-08-11 00:06:00,67.6,63.9,30.04,West,263,0.0,0.0,88,0.00,,BKN120,0.00,VWS V14.01,2013-08-11 05:06:00,
2013-08-11 00:11:00,67.6,64.2,30.04,SSE,151,1.0,1.0,89,0.00,,BKN120,0.00,VWS V14.01,2013-08-11 05:11:00,
2013-08-11 00:16:00,67.6,64.2,30.04,ESE,111,0.0,1.0,89,0.00,,BKN120,0.00,VWS V14.01,2013-08-11 05:16:00,
2013-08-11 00:21:00,67.5,64.5,30.04,SE,132,0.0,1.0,90,0.00,,BKN120,0.00,VWS V14.01,2013-08-11 05:21:00,
2013-08-11 00:26:00,67.3,64.3,30.04,SE,145,0.0,1.0,90,0.00,,BKN120,0.00,VWS V14.01,2013-08-11 05:26:00,
2013-08-11 00:31:00,67.3,64.0,30.04,SE,136,0.0,0.0,89,0.00,,BKN120,0.00,VWS V14.01,2013-08-11 05:31:00,
2013-08-11 00:36:00,67.3,64.3,30.04,East,93,1.0,1.0,90,0.00,,BKN120,0.00,VWS V14.01,2013-08-11 05:36:00,
2013-08-11 00:42:00,67.4,64.1,30.03,ESE,121,3.0,3.0,89,0.00,,BKN120,0.00,VWS V14.01,2013-08-11 05:42:00,
2013-08-11 00:47:00,67.3,64.0,30.04,ESE,108,1.0,3.0,89,0.00,,BKN120,0.00,VWS V14.01,2013-08-11 05:47:00,
2013-08-11 00:52:00,67.5,64.2,30.04,ESE,107,2.0,3.0,89,0.00,,BKN120,0.00,VWS V14.01,2013-08-11 05:52:00,
2013-08-11 00:57:00,67.5,64.2,30.04,ESE,105,0.0,3.0,89,0.00,,BKN120,0.00,VWS V14.01,2013-08-11 05:57:00,
2013-08-11 01:00:00,67.6,63.9,30.04,SE,129,1.0,3.0,88,0.00,,SCT110,0.00,VWS V14.01,2013-08-11 06:00:00,
2013-08-11 01:02:00,67.6,63.9,30.04,SE,132,1.0,1.0,88,0.00,,BKN065,0.00,VWS V14.01,2013-08-11 06:02:00,
2013-08-11 01:07:00,67.7,64.0,30.04,SE,130,2.0,3.0,88,0.00,,BKN065,0.00,VWS V14.01,2013-08-11 06:07:00,
2013-08-11 01:12:00,67.7,63.7,30.04,SE,126,1.0,3.0,87,0.00,,BKN065,0.00,VWS V14.01,2013-08-11 06:12:00,
2013-08-11 01:17:00,67.8,64.1,30.04,ESE,107,0.0,3.0,88,0.00,,BKN065,0.00,VWS V14.01,2013-08-11 06:17:00,
2013-08-11 01:22:00,67.8,63.8,30.04,ESE,122,1.0,3.0,87,0.00,,BKN065,0.00,VWS V14.01,2013-08-11 06:22:00,
2013-08-11 01:27:00,67.7,63.7,30.04,SE,126,2.0,3.0,87,0.00,,BKN065,0.00,VWS V14.01,2013-08-11 06:27:00,
2013-08-11 01:30:00,67.7,63.7,30.04,SE,142,2.0,3.0,87,0.00,,SCT110,0.00,VWS V14.01,2013-08-11 06:30:00,
2013-08-11 01:32:00,67.7,63.7,30.04,SE,141,2.0,2.0,87,0.00,,BKN065,0.00,VWS V14.01,2013-08-11 06:32:00,
2013-08-11 01:37:00,67.6,63.9,30.03,SE,125,3.0,3.0,88,0.00,,BKN065,0.00,VWS V14.01,2013-08-11 06:37:00,
2013-08-11 01:42:00,67.5,63.5,30.04,SE,142,3.0,4.0,87,0.00,,BKN065,0.00,VWS V14.01,2013-08-11 06:42:00,
2013-08-11 01:47:00,67.5,63.5,30.03,SE,136,2.0,4.0,87,0.00,,BKN065,0.00,VWS V14.01,2013-08-11 06:47:00,
2013-08-11 01:52:00,67.3,63.3,30.03,SE,132,4.0,5.0,87,0.00,,BKN065,0.00,VWS V14.01,2013-08-11 06:52:00,
2013-08-11 01:57:00,67.2,63.2,30.03,SE,131,4.0,5.0,87,0.00,,BKN065,0.00,VWS V14.01,2013-08-11 06:57:00,
2013-08-11 02:00:00,67.1,63.1,30.03,SE,138,4.0,6.0,87,0.00,,SCT110,0.00,VWS V14.01,2013-08-11 07:00:00,
2013-08-11 02:02:00,67.1,63.1,30.03,SE,134,4.0,6.0,87,0.00,,OVC065,0.00,VWS V14.01,2013-08-11 07:02:00,
2013-08-11 02:08:00,67.0,63.3,30.03,ESE,123,3.0,6.0,88,0.00,,OVC065,0.00,VWS V14.01,2013-08-11 07:08:00,
2013-08-11 02:13:00,66.9,63.2,30.03,SSE,148,4.0,6.0,88,0.00,,OVC065,0.00,VWS V14.01,2013-08-11 07:13:00,
2013-08-11 02:18:00,66.8,63.1,30.03,SSE,150,2.0,6.0,88,0.00,,OVC065,0.00,VWS V14.01,2013-08-11 07:18:00,
2013-08-11 02:23:00,66.7,63.4,30.03,SE,142,3.0,6.0,89,0.00,,OVC065,0.00,VWS V14.01,2013-08-11 07:23:00,
2013-08-11 02:28:00,66.6,63.3,30.03,SE,143,6.0,6.0,89,0.00,,OVC065,0.00,VWS V14.01,2013-08-11 07:28:00,
2013-08-11 02:30:00,66.4,63.1,30.03,SSE,163,5.0,7.0,89,0.00,,SCT110,0.00,VWS V14.01,2013-08-11 07:30:00,
2013-08-11 02:33:00,66.4,63.1,30.02,SSE,153,6.0,8.0,89,0.00,,OVC065,0.00,VWS V14.01,2013-08-11 07:33:00,
2013-08-11 02:38:00,66.3,63.0,30.02,SSE,148,3.0,8.0,89,0.00,,OVC065,0.00,VWS V14.01,2013-08-11 07:38:00,
2013-08-11 02:43:00,66.2,62.9,30.02,SE,146,3.0,8.0,89,0.00,,OVC065,0.00,VWS V14.01,2013-08-11 07:43:00,
2013-08-11 02:48:00,66.2,63.2,30.02,SE,143,5.0,8.0,90,0.00,,OVC065,0.00,VWS V14.01,2013-08-11 07:48:00,
2013-08-11 02:53:00,66.1,63.1,30.02,SSE,159,3.0,8.0,90,0.00,,OVC065,0.00,VWS V14.01,2013-08-11 07:53:00,
2013-08-11 02:58:00,66.1,63.1,30.02,SSE,160,4.0,8.0,90,0.00,,OVC065,0.00,VWS V14.01,2013-08-11 07:58:00,
2013-08-11 03:00:00,66.1,63.1,30.02,SE,136,3.0,8.0,90,0.00,,SCT110,0.00,VWS V14.01,2013-08-11 08:00:00,
2013-08-11 03:03:00,66.0,63.0,30.01,SE,127,3.0,5.0,90,0.00,,BKN110,0.00,VWS V14.01,2013-08-11 08:03:00,
2013-08-11 03:08:00,66.0,63.3,30.01,ESE,120,4.0,5.0,91,0.00,,BKN110,0.00,VWS V14.01,2013-08-11 08:08:00,
2013-08-11 03:13:00,66.0,63.3,30.01,SE,134,3.0,6.0,91,0.00,,BKN110,0.00,VWS V14.01,2013-08-11 08:13:00,
2013-08-11 03:18:00,66.0,63.3,30.01,SSE,153,4.0,6.0,91,0.00,,BKN110,0.00,VWS V14.01,2013-08-11 08:18:00,
2013-08-11 03:23:00,66.2,63.2,30.01,SSE,158,4.0,6.0,90,0.00,,BKN110,0.00,VWS V14.01,2013-08-11 08:23:00,
2013-08-11 03:28:00,66.2,63.2,30.01,SSW,194,3.0,6.0,90,0.00,,BKN110,0.00,VWS V14.01,2013-08-11 08:28:00,
2013-08-11 03:30:00,66.2,63.2,30.01,SSE,162,2.0,6.0,90,0.00,,SCT110,0.00,VWS V14.01,2013-08-11 08:30:00,
2013-08-11 03:33:00,66.3,63.0,30.01,SSE,162,2.0,5.0,89,0.00,,BKN110,0.00,VWS V14.01,2013-08-11 08:33:00,
2013-08-11 03:38:00,66.4,63.1,30.02,SSW,198,3.0,6.0,89,0.00,,BKN110,0.00,VWS V14.01,2013-08-11 08:38:00,
2013-08-11 03:44:00,66.5,62.8,30.02,SW,221,3.0,7.0,88,0.00,,BKN110,0.00,VWS V14.01,2013-08-11 08:44:00,
2013-08-11 03:49:00,66.5,62.8,30.01,SE,141,10.0,10.0,88,0.00,,BKN110,0.00,VWS V14.01,2013-08-11 08:49:00,
2013-08-11 03:54:00,66.4,62.7,30.01,SSW,204,4.0,10.0,88,0.00,,BKN110,0.00,VWS V14.01,2013-08-11 08:54:00,
2013-08-11 03:59:00,66.2,62.9,30.01,SW,225,5.0,10.0,89,0.00,,BKN110,0.00,VWS V14.01,2013-08-11 08:59:00,
2013-08-11 04:00:00,66.1,62.8,30.00,SSE,148,6.0,10.0,89,0.00,,SCT110,0.00,VWS V14.01,2013-08-11 09:00:00,
2013-08-11 04:04:00,66.0,62.3,30.01,South,169,4.0,8.0,88,0.00,,-RA,0.00,VWS V14.01,2013-08-11 09:04:00,
2013-08-11 04:09:00,65.9,62.6,30.01,SSW,210,5.0,9.0,89,0.00,,-RA,0.00,VWS V14.01,2013-08-11 09:09:00,
2013-08-11 04:14:00,65.9,62.6,30.01,SW,236,6.0,11.0,89,0.00,,-RA,0.00,VWS V14.01,2013-08-11 09:14:00,
2013-08-11 04:19:00,66.0,62.3,30.02,SW,235,1.0,11.0,88,0.00,,-RA,0.00,VWS V14.01,2013-08-11 09:19:00,
2013-08-11 04:24:00,66.0,62.7,30.03,West,263,0.0,11.0,89,0.00,,-RA,0.00,VWS V14.01,2013-08-11 09:24:00,
2013-08-11 04:29:00,66.0,62.3,30.03,WSW,246,2.0,11.0,88,0.00,,-RA,0.00,VWS V14.01,2013-08-11 09:29:00,
2013-08-11 04:30:00,66.1,62.8,30.03,SW,226,3.0,11.0,89,0.00,,SCT110,0.00,VWS V14.01,2013-08-11 09:30:00,
2013-08-11 04:34:00,66.0,62.7,30.02,SSE,149,3.0,10.0,89,0.01,, +RA,0.01,VWS V14.01,2013-08-11 09:34:00,
2013-08-11 04:39:00,65.8,62.8,30.02,WSW,249,5.0,12.0,90,0.02,, +RA,0.02,VWS V14.01,2013-08-11 09:39:00,
2013-08-11 04:44:00,65.5,62.8,30.02,WSW,255,2.0,12.0,91,0.04,,RA,0.04,VWS V14.01,2013-08-11 09:44:00,
2013-08-11 04:50:00,65.1,62.7,30.02,WSW,242,5.0,12.0,92,0.05,,RA,0.05,VWS V14.01,2013-08-11 09:50:00,
2013-08-11 04:55:00,65.0,62.6,30.01,SW,231,2.0,12.0,92,0.05,,RA,0.05,VWS V14.01,2013-08-11 09:55:00,
2013-08-11 05:00:00,65.0,62.9,30.01,SW,221,5.0,12.0,93,0.06,,RA,0.06,VWS V14.01,2013-08-11 10:00:00,
2013-08-11 05:05:00,65.0,62.6,30.00,South,186,5.0,9.0,92,0.07,,RA,0.07,VWS V14.01,2013-08-11 10:05:00,
2013-08-11 05:10:00,65.1,62.7,30.00,SSW,196,3.0,9.0,92,0.09,,RA,0.09,VWS V14.01,2013-08-11 10:10:00,
2013-08-11 05:15:00,65.1,62.7,30.00,SSW,206,4.0,12.0,92,0.11,,RA,0.11,VWS V14.01,2013-08-11 10:15:00,
2013-08-11 05:20:00,65.3,62.6,30.00,SE,144,8.0,16.0,91,0.13,,RA,0.13,VWS V14.01,2013-08-11 10:20:00,
2013-08-11 05:25:00,65.3,62.6,30.00,SSW,210,13.0,16.0,91,0.15,,RA,0.15,VWS V14.01,2013-08-11 10:25:00,
2013-08-11 05:30:00,65.3,62.6,30.00,West,262,4.0,16.0,91,0.16,,RA,0.16,VWS V14.01,2013-08-11 10:30:00,
2013-08-11 05:35:00,65.3,62.6,30.00,SSW,205,4.0,14.0,91,0.16,,RA,0.16,VWS V14.01,2013-08-11 10:35:00,
2013-08-11 05:40:00,65.4,62.4,30.01,WSW,245,11.0,14.0,90,0.17,,RA,0.17,VWS V14.01,2013-08-11 10:40:00,
2013-08-11 05:45:00,65.4,62.4,30.01,West,270,3.0,15.0,90,0.17,,RA,0.17,VWS V14.01,2013-08-11 10:45:00,
2013-08-11 05:50:00,65.4,62.4,30.01,WSW,238,7.0,15.0,90,0.18,,RA,0.18,VWS V14.01,2013-08-11 10:50:00,
2013-08-11 05:55:00,65.3,62.6,30.00,WSW,257,3.0,15.0,91,0.18,,RA,0.18,VWS V14.01,2013-08-11 10:55:00,
2013-08-11 06:00:00,65.2,62.5,30.00,SSW,194,5.0,15.0,91,0.19,,-RA,0.19,VWS V14.01,2013-08-11 11:00:00,
2013-08-11 06:06:00,65.1,62.4,29.99,WSW,245,4.0,14.0,91,0.14,,-RA,0.20,VWS V14.01,2013-08-11 11:06:00,
2013-08-11 06:11:00,64.9,62.5,29.99,SSW,212,9.0,14.0,92,0.15,,-RA,0.21,VWS V14.01,2013-08-11 11:11:00,
2013-08-11 06:16:00,64.8,62.4,29.99,WSW,238,11.0,14.0,92,0.16,,-RA,0.22,VWS V14.01,2013-08-11 11:16:00,
2013-08-11 06:21:00,64.9,62.2,29.99,SW,215,6.0,16.0,91,0.18,,-RA,0.24,VWS V14.01,2013-08-11 11:21:00,
2013-08-11 06:26:00,65.0,62.3,29.98,WSW,242,7.0,16.0,91,0.20,,-RA,0.26,VWS V14.01,2013-08-11 11:26:00,
2013-08-11 06:31:00,65.3,62.6,29.98,WSW,240,10.0,16.0,91,0.12,,-RA,0.28,VWS V14.01,2013-08-11 11:31:00,
2013-08-11 06:36:00,65.7,62.7,29.98,WSW,255,8.0,18.0,90,0.14,,-RA,0.30,VWS V14.01,2013-08-11 11:36:00,
2013-08-11 06:42:00,65.7,62.7,29.98,WSW,257,4.0,18.0,90,0.15,,-RA,0.31,VWS V14.01,2013-08-11 11:42:00,
2013-08-11 06:47:00,65.5,62.8,30.00,NNW,340,1.0,18.0,91,0.16,,-RA,0.32,VWS V14.01,2013-08-11 11:47:00,
2013-08-11 06:52:00,65.3,63.2,30.00,North,5,1.0,18.0,93,0.17,,-RA,0.33,VWS V14.01,2013-08-11 11:52:00,
2013-08-11 06:57:00,65.1,63.3,30.01,ESE,122,2.0,18.0,94,0.17,,-RA,0.33,VWS V14.01,2013-08-11 11:57:00,
2013-08-11 07:02:00,65.2,63.1,30.01,WNW,288,0.0,9.0,93,0.14,,-RA,0.33,VWS V14.01,2013-08-11 12:02:00,
2013-08-11 07:07:00,65.2,63.4,30.00,NW,325,1.0,11.0,94,0.14,,-RA,0.33,VWS V14.01,2013-08-11 12:07:00,
2013-08-11 07:12:00,65.3,63.5,30.00,NW,304,0.0,11.0,94,0.14,,-RA,0.33,VWS V14.01,2013-08-11 12:12:00,
2013-08-11 07:17:00,65.3,63.5,29.99,NW,305,0.0,11.0,94,0.14,,-RA,0.33,VWS V14.01,2013-08-11 12:17:00,
2013-08-11 07:22:00,65.1,63.3,29.99,West,278,1.0,11.0,94,0.14,,-RA,0.33,VWS V14.01,2013-08-11 12:22:00,
2013-08-11 07:28:00,65.0,63.2,29.99,WNW,285,4.0,11.0,94,0.14,,-RA,0.33,VWS V14.01,2013-08-11 12:28:00,
2013-08-11 07:30:00,65.0,63.2,29.99,WSW,241,2.0,11.0,94,0.14,,SCT110,0.33,VWS V14.01,2013-08-11 12:30:00,
2013-08-11 07:33:00,64.9,63.1,30.00,WNW,291,1.0,7.0,94,0.05,,-RA,0.33,VWS V14.01,2013-08-11 12:33:00,
2013-08-11 07:38:00,64.8,63.0,30.00,West,259,4.0,7.0,94,0.05,,-RA,0.33,VWS V14.01,2013-08-11 12:38:00,
2013-08-11 07:43:00,64.7,62.9,29.99,West,259,4.0,7.0,94,0.05,,-RA,0.33,VWS V14.01,2013-08-11 12:43:00,
2013-08-11 07:48:00,64.6,62.8,29.99,West,270,5.0,7.0,94,0.05,,-RA,0.33,VWS V14.01,2013-08-11 12:48:00,
2013-08-11 07:53:00,64.5,63.0,29.99,West,276,1.0,7.0,95,0.05,,-RA,0.33,VWS V14.01,2013-08-11 12:53:00,
2013-08-11 07:58:00,64.4,62.9,29.99,WNW,302,2.0,7.0,95,0.05,,-RA,0.33,VWS V14.01,2013-08-11 12:58:00,
2013-08-11 08:03:00,64.4,63.2,29.99,NW,305,0.0,4.0,96,0.00,,SCT120,0.33,VWS V14.01,2013-08-11 13:03:00,
2013-08-11 08:08:00,64.5,63.3,30.00,NW,316,0.0,4.0,96,0.00,,SCT120,0.33,VWS V14.01,2013-08-11 13:08:00,
2013-08-11 08:13:00,64.5,63.3,30.00,ENE,63,0.0,6.0,96,0.00,,SCT120,0.33,VWS V14.01,2013-08-11 13:13:00,
2013-08-11 08:19:00,64.7,63.5,30.00,North,11,3.0,6.0,96,0.00,,SCT120,0.33,VWS V14.01,2013-08-11 13:19:00,
2013-08-11 08:24:00,64.6,63.4,30.01,NNW,341,2.0,6.0,96,0.00,,SCT120,0.33,VWS V14.01,2013-08-11 13:24:00,
2013-08-11 08:29:00,64.4,62.9,30.01,NNW,346,0.0,6.0,95,0.00,,SCT120,0.33,VWS V14.01,2013-08-11 13:29:00,
2013-08-11 08:30:00,64.4,62.9,30.01,NNW,347,0.0,6.0,95,0.00,,SCT110,0.33,VWS V14.01,2013-08-11 13:30:00,
2013-08-11 08:34:00,64.4,63.2,30.02,NNE,23,0.0,2.0,96,0.00,,SCT120,0.33,VWS V14.01,2013-08-11 13:34:00,
2013-08-11 08:39:00,64.4,63.2,30.02,NW,311,0.0,3.0,96,0.00,,SCT120,0.33,VWS V14.01,2013-08-11 13:39:00,
2013-08-11 08:44:00,64.5,63.3,30.02,NNW,341,1.0,3.0,96,0.00,,SCT120,0.33,VWS V14.01,2013-08-11 13:44:00,
2013-08-11 08:49:00,64.6,63.4,30.02,NNW,342,0.0,3.0,96,0.01,,SCT120,0.34,VWS V14.01,2013-08-11 13:49:00,
2013-08-11 08:54:00,64.6,63.4,30.02,NNW,330,0.0,3.0,96,0.01,,SCT120,0.34,VWS V14.01,2013-08-11 13:54:00,
2013-08-11 08:59:00,64.7,63.5,30.02,West,274,1.0,3.0,96,0.01,,SCT120,0.34,VWS V14.01,2013-08-11 13:59:00,
2013-08-11 09:00:00,64.7,63.5,30.02,WNW,300,0.0,3.0,96,0.01,,SCT110,0.34,VWS V14.01,2013-08-11 14:00:00,
2013-08-11 09:04:00,64.7,63.2,30.02,WNW,293,0.0,6.0,95,0.01,,-RA,0.34,VWS V14.01,2013-08-11 14:04:00,
2013-08-11 09:10:00,64.8,63.3,30.02,WNW,284,0.0,6.0,95,0.01,,-RA,0.34,VWS V14.01,2013-08-11 14:10:00,
2013-08-11 09:15:00,64.8,63.3,30.02,WNW,291,0.0,6.0,95,0.01,,-RA,0.34,VWS V14.01,2013-08-11 14:15:00,
2013-08-11 09:20:00,64.8,63.3,30.03,WNW,292,1.0,6.0,95,0.01,,-RA,0.34,VWS V14.01,2013-08-11 14:20:00,
2013-08-11 09:25:00,64.8,63.3,30.03,NW,311,0.0,6.0,95,0.01,,-RA,0.34,VWS V14.01,2013-08-11 14:25:00,
2013-08-11 09:30:00,65.0,63.8,30.03,NNW,339,1.0,6.0,96,0.01,,-RA,0.34,VWS V14.01,2013-08-11 14:30:00,
2013-08-11 09:35:00,65.1,63.9,30.03,NW,319,1.0,4.0,96,0.01,,-RA,0.34,VWS V14.01,2013-08-11 14:35:00,
2013-08-11 09:40:00,65.0,63.5,30.03,ENE,62,0.0,4.0,95,0.01,,-RA,0.34,VWS V14.01,2013-08-11 14:40:00,
2013-08-11 09:45:00,64.9,63.4,30.03,NW,308,0.0,4.0,95,0.01,,-RA,0.34,VWS V14.01,2013-08-11 14:45:00,
2013-08-11 09:50:00,64.8,63.3,30.02,NNW,340,0.0,4.0,95,0.01,,-RA,0.34,VWS V14.01,2013-08-11 14:50:00,
2013-08-11 09:56:00,64.8,63.6,30.03,North,5,0.0,4.0,96,0.01,,-RA,0.34,VWS V14.01,2013-08-11 14:56:00,
2013-08-11 10:01:00,64.7,63.5,30.04,WNW,295,0.0,1.0,96,0.00,,-RA,0.34,VWS V14.01,2013-08-11 15:01:00,
2013-08-11 10:06:00,64.7,63.2,30.04,NNW,335,1.0,3.0,95,0.01,,-RA,0.35,VWS V14.01,2013-08-11 15:06:00,
2013-08-11 10:12:00,64.7,63.5,30.05,WNW,297,2.0,11.0,96,0.02,,-RA,0.36,VWS V14.01,2013-08-11 15:12:00,
2013-08-11 10:17:00,64.8,63.3,30.05,West,272,2.0,11.0,95,0.04,,-RA,0.38,VWS V14.01,2013-08-11 15:17:00,
2013-08-11 10:22:00,64.6,63.1,30.05,West,281,1.0,11.0,95,0.06,,-RA,0.40,VWS V14.01,2013-08-11 15:22:00,
2013-08-11 10:27:00,64.5,63.0,30.05,West,270,6.0,11.0,95,0.08,,-RA,0.42,VWS V14.01,2013-08-11 15:27:00,
2013-08-11 10:30:00,64.5,63.0,30.04,West,266,1.0,11.0,95,0.09,,SCT110,0.43,VWS V14.01,2013-08-11 15:30:00,
2013-08-11 10:32:00,64.5,63.0,30.04,WNW,282,3.0,4.0,95,0.09,,RA,0.43,VWS V14.01,2013-08-11 15:32:00,
2013-08-11 10:37:00,64.4,62.9,30.03,WSW,245,2.0,6.0,95,0.09,,RA,0.43,VWS V14.01,2013-08-11 15:37:00,
2013-08-11 10:42:00,64.5,63.0,30.02,West,275,0.0,6.0,95,0.11,,RA,0.45,VWS V14.01,2013-08-11 15:42:00,
2013-08-11 10:47:00,64.5,63.0,30.02,WNW,285,1.0,6.0,95,0.11,,RA,0.45,VWS V14.01,2013-08-11 15:47:00,
2013-08-11 10:52:00,64.6,63.1,30.02,West,277,2.0,6.0,95,0.12,,RA,0.46,VWS V14.01,2013-08-11 15:52:00,
2013-08-11 10:57:00,64.8,63.3,30.02,WSW,253,2.0,6.0,95,0.13,,RA,0.47,VWS V14.01,2013-08-11 15:57:00,
2013-08-11 11:00:00,64.9,63.4,30.02,WSW,255,0.0,6.0,95,0.13,,SCT110,0.47,VWS V14.01,2013-08-11 16:00:00,
2013-08-11 11:02:00,65.0,63.5,30.02,WSW,255,0.0,1.0,95,0.13,,-RA,0.47,VWS V14.01,2013-08-11 16:02:00,
2013-08-11 11:07:00,65.2,63.4,30.01,West,259,1.0,2.0,94,0.13,,-RA,0.47,VWS V14.01,2013-08-11 16:07:00,
2013-08-11 11:12:00,65.5,63.7,30.01,SSW,203,1.0,2.0,94,0.13,,-RA,0.47,VWS V14.01,2013-08-11 16:12:00,
2013-08-11 11:17:00,65.8,63.7,30.01,South,176,0.0,3.0,93,0.13,,-RA,0.47,VWS V14.01,2013-08-11 16:17:00,
2013-08-11 11:22:00,66.0,63.6,30.00,WSW,246,0.0,3.0,92,0.13,,-RA,0.47,VWS V14.01,2013-08-11 16:22:00,
2013-08-11 11:27:00,66.3,63.9,30.00,WNW,283,1.0,3.0,92,0.13,,-RA,0.47,VWS V14.01,2013-08-11 16:27:00,
2013-08-11 11:30:00,66.5,64.4,30.00,West,281,0.0,3.0,93,0.13,,SCT110,0.47,VWS V14.01,2013-08-11 16:30:00,
2013-08-11 11:32:00,66.6,63.9,30.00,WSW,245,3.0,3.0,91,0.04,,-RA,0.47,VWS V14.01,2013-08-11 16:32:00,
2013-08-11 11:37:00,66.8,63.8,30.00,WSW,243,1.0,3.0,90,0.04,,-RA,0.47,VWS V14.01,2013-08-11 16:37:00,
2013-08-11 11:43:00,67.6,64.9,30.00,SSW,205,0.0,3.0,91,0.04,,-RA,0.47,VWS V14.01,2013-08-11 16:43:00,
2013-08-11 11:47:00,68.6,65.2,30.00,WSW,240,3.0,4.0,89,0.04,,-RA,0.47,VWS V14.01,2013-08-11 16:47:00,
2013-08-11 11:55:00,69.5,65.1,30.00,WSW,255,2.0,2.0,86,0.00,,-RA,0.47,VWS V14.01,2013-08-11 16:55:00,
2013-08-11 12:00:00,69.5,64.5,30.00,WSW,244,4.0,5.0,84,0.04,,SCT110,0.47,VWS V14.01,2013-08-11 17:00:00,
2013-08-11 12:05:00,69.3,64.3,30.00,South,178,2.0,4.0,84,0.00,,SCT110,0.47,VWS V14.01,2013-08-11 17:05:00,
2013-08-11 12:10:00,69.2,64.8,30.00,SSW,203,0.0,5.0,86,0.00,,SCT110,0.47,VWS V14.01,2013-08-11 17:10:00,
2013-08-11 12:15:00,69.3,64.9,30.00,WSW,250,4.0,6.0,86,0.00,,SCT110,0.47,VWS V14.01,2013-08-11 17:15:00,
2013-08-11 12:20:00,69.0,64.0,30.00,SW,235,2.0,6.0,84,0.00,,SCT110,0.47,VWS V14.01,2013-08-11 17:20:00,
2013-08-11 12:25:00,68.9,65.2,30.00,SSE,160,1.0,6.0,88,0.00,,SCT110,0.47,VWS V14.01,2013-08-11 17:25:00,
2013-08-11 12:30:00,69.0,65.0,30.00,SW,215,4.0,6.0,87,0.00,,SCT110,0.47,VWS V14.01,2013-08-11 17:30:00,
2013-08-11 12:35:00,69.1,64.1,30.00,SW,221,2.0,6.0,84,0.00,,SCT110,0.47,VWS V14.01,2013-08-11 17:35:00,
2013-08-11 12:40:00,69.0,64.6,30.00,SW,226,2.0,6.0,86,0.00,,SCT110,0.47,VWS V14.01,2013-08-11 17:40:00,
2013-08-11 12:46:00,68.9,64.6,30.00,WSW,256,1.0,6.0,86,0.00,,SCT110,0.47,VWS V14.01,2013-08-11 17:46:00,
2013-08-11 12:51:00,69.0,65.0,30.00,SSW,195,1.0,6.0,87,0.00,,SCT110,0.47,VWS V14.01,2013-08-11 17:51:00,
2013-08-11 12:56:00,69.4,64.7,30.00,SSE,156,3.0,6.0,85,0.00,,SCT110,0.47,VWS V14.01,2013-08-11 17:56:00,
2013-08-11 13:01:00,69.5,64.5,30.00,WSW,252,3.0,3.0,84,0.00,,BKN110,0.47,VWS V14.01,2013-08-11 18:01:00,
2013-08-11 13:06:00,69.4,64.0,30.00,SW,232,2.0,3.0,83,0.00,,BKN110,0.47,VWS V14.01,2013-08-11 18:06:00,
2013-08-11 13:11:00,69.4,64.4,30.00,SSW,203,0.0,3.0,84,0.00,,BKN110,0.47,VWS V14.01,2013-08-11 18:11:00,
2013-08-11 13:16:00,69.4,64.0,30.01,WSW,249,0.0,3.0,83,0.00,,BKN110,0.47,VWS V14.01,2013-08-11 18:16:00,
2013-08-11 13:21:00,69.5,64.5,30.00,SE,128,0.0,3.0,84,0.00,,BKN110,0.47,VWS V14.01,2013-08-11 18:21:00,
2013-08-11 13:26:00,69.8,65.1,30.00,SE,128,0.0,3.0,85,0.00,,BKN110,0.47,VWS V14.01,2013-08-11 18:26:00,
2013-08-11 13:31:00,70.0,65.3,30.00,ESE,105,0.0,0.0,85,0.00,,BKN110,0.47,VWS V14.01,2013-08-11 18:31:00,
2013-08-11 13:36:00,70.2,65.8,30.00,ESE,112,0.0,1.0,86,0.00,,BKN110,0.47,VWS V14.01,2013-08-11 18:36:00,
2013-08-11 13:41:00,70.6,65.5,30.00,SE,125,2.0,2.0,84,0.00,,BKN110,0.47,VWS V14.01,2013-08-11 18:41:00,
2013-08-11 13:46:00,70.8,64.7,30.00,ESE,103,3.0,4.0,81,0.00,,BKN110,0.47,VWS V14.01,2013-08-11 18:46:00,
2013-08-11 13:51:00,71.1,65.0,30.00,ESE,120,3.0,4.0,81,0.00,,BKN110,0.47,VWS V14.01,2013-08-11 18:51:00,
2013-08-11 13:56:00,71.4,66.0,30.00,SE,131,3.0,6.0,83,0.00,,OVC100,0.47,VWS V14.01,2013-08-11 18:56:00,
2013-08-11 14:01:00,71.8,65.3,29.99,East,101,3.0,4.0,80,0.00,,OVC100,0.47,VWS V14.01,2013-08-11 19:01:00,
2013-08-11 14:06:00,72.2,66.1,29.99,ESE,103,6.0,6.0,81,0.00,,OVC100,0.47,VWS V14.01,2013-08-11 19:06:00,
2013-08-11 14:21:00,72.2,65.3,29.98,East,93,3.0,9.0,79,0.00,,OVC100,0.47,VWS V14.01,2013-08-11 19:21:00,
2013-08-11 14:26:00,72.2,66.4,29.99,NE,39,0.0,9.0,82,0.00,,OVC100,0.47,VWS V14.01,2013-08-11 19:26:00,
2013-08-11 14:31:00,72.2,66.1,29.99,ESE,103,1.0,3.0,81,0.00,,OVC100,0.47,VWS V14.01,2013-08-11 19:31:00,
2013-08-11 14:37:00,72.1,66.7,30.00,ESE,103,0.0,3.0,83,0.00,,OVC100,0.47,VWS V14.01,2013-08-11 19:37:00,
2013-08-11 14:42:00,72.0,66.6,30.00,NNE,13,0.0,3.0,83,0.00,,OVC100,0.47,VWS V14.01,2013-08-11 19:42:00,
2013-08-11 14:47:00,71.7,66.3,30.00,NNE,16,0.0,3.0,83,0.00,,OVC100,0.47,VWS V14.01,2013-08-11 19:47:00,
2013-08-11 14:52:00,71.4,66.0,30.00,NNE,32,0.0,3.0,83,0.00,,OVC100,0.47,VWS V14.01,2013-08-11 19:52:00,
2013-08-11 14:57:00,71.1,66.0,30.00,North,9,0.0,3.0,84,0.00,,OVC100,0.47,VWS V14.01,2013-08-11 19:57:00,
2013-08-11 15:02:00,71.1,66.4,29.99,NNE,33,0.0,5.0,85,0.00,,OVC047,0.47,VWS V14.01,2013-08-11 20:02:00,
2013-08-11 15:07:00,71.2,66.5,29.99,North,8,2.0,5.0,85,0.00,,OVC047,0.47,VWS V14.01,2013-08-11 20:07:00,
2013-08-11 15:12:00,71.4,67.3,29.99,NNE,32,0.0,5.0,87,0.00,,OVC047,0.47,VWS V14.01,2013-08-11 20:12:00,
2013-08-11 15:17:00,71.5,67.1,29.99,NE,51,0.0,5.0,86,0.00,,OVC047,0.47,VWS V14.01,2013-08-11 20:17:00,
2013-08-11 15:22:00,71.3,66.2,29.99,East,100,0.0,6.0,84,0.00,,OVC047,0.47,VWS V14.01,2013-08-11 20:22:00,
2013-08-11 15:28:00,71.6,66.5,29.99,East,86,0.0,6.0,84,0.00,,OVC047,0.47,VWS V14.01,2013-08-11 20:28:00,
2013-08-11 15:33:00,71.9,67.2,29.98,East,88,3.0,3.0,85,0.00,,OVC047,0.47,VWS V14.01,2013-08-11 20:33:00,
2013-08-11 15:38:00,71.6,66.2,29.98,ENE,63,0.0,3.0,83,0.00,,OVC047,0.47,VWS V14.01,2013-08-11 20:38:00,
2013-08-11 15:43:00,71.5,66.4,29.98,SE,129,3.0,5.0,84,0.00,,OVC047,0.47,VWS V14.01,2013-08-11 20:43:00,
2013-08-11 15:48:00,71.4,66.3,29.98,ENE,64,1.0,5.0,84,0.00,,OVC047,0.47,VWS V14.01,2013-08-11 20:48:00,
2013-08-11 15:53:00,71.2,66.5,29.98,NE,55,0.0,5.0,85,0.00,,OVC047,0.47,VWS V14.01,2013-08-11 20:53:00,
2013-08-11 15:58:00,71.1,66.4,29.97,NE,53,1.0,5.0,85,0.00,,SCT070,0.47,VWS V14.01,2013-08-11 20:58:00,
2013-08-11 16:03:00,70.9,65.8,29.98,ENE,57,0.0,1.0,84,0.00,,SCT070,0.47,VWS V14.01,2013-08-11 21:03:00,
2013-08-11 16:08:00,70.4,65.7,29.97,East,79,0.0,3.0,85,0.00,,SCT070,0.47,VWS V14.01,2013-08-11 21:08:00,
2013-08-11 16:13:00,70.1,65.4,29.97,ENE,61,0.0,3.0,85,0.00,,SCT070,0.47,VWS V14.01,2013-08-11 21:13:00,
2013-08-11 16:18:00,69.9,65.5,29.97,East,81,0.0,4.0,86,0.00,,SCT070,0.47,VWS V14.01,2013-08-11 21:18:00,
2013-08-11 16:23:00,69.7,65.3,29.97,NNE,22,1.0,4.0,86,0.00,,SCT070,0.47,VWS V14.01,2013-08-11 21:23:00,
2013-08-11 16:29:00,69.5,65.1,29.97,ENE,57,0.0,4.0,86,0.00,,SCT070,0.47,VWS V14.01,2013-08-11 21:29:00,
2013-08-11 16:34:00,69.4,65.4,29.97,ENE,63,0.0,2.0,87,0.00,,SCT070,0.47,VWS V14.01,2013-08-11 21:34:00,
2013-08-11 16:39:00,69.2,65.2,29.97,ENE,72,0.0,2.0,87,0.00,,SCT070,0.47,VWS V14.01,2013-08-11 21:39:00,
2013-08-11 16:44:00,69.2,65.8,29.97,NE,54,0.0,2.0,89,0.00,,SCT070,0.47,VWS V14.01,2013-08-11 21:44:00,
2013-08-11 16:49:00,69.0,65.6,29.98,ENE,63,2.0,3.0,89,0.00,,SCT070,0.47,VWS V14.01,2013-08-11 21:49:00,
2013-08-11 16:54:00,68.8,65.8,29.97,NE,53,0.0,3.0,90,0.00,,OVC070,0.47,VWS V14.01,2013-08-11 21:54:00,
2013-08-11 16:59:00,68.8,66.1,29.97,SE,145,2.0,3.0,91,0.00,,OVC070,0.47,VWS V14.01,2013-08-11 21:59:00,
2013-08-11 17:04:00,68.8,66.4,29.97,NNW,338,2.0,3.0,92,0.00,,OVC070,0.47,VWS V14.01,2013-08-11 22:04:00,
2013-08-11 17:09:00,68.8,66.1,29.97,ENE,61,1.0,3.0,91,0.00,,OVC070,0.47,VWS V14.01,2013-08-11 22:09:00,
2013-08-11 17:14:00,68.6,65.9,29.97,ENE,69,2.0,3.0,91,0.00,,OVC070,0.47,VWS V14.01,2013-08-11 22:14:00,
2013-08-11 17:19:00,68.4,65.7,29.97,ENE,60,0.0,3.0,91,0.00,,OVC070,0.47,VWS V14.01,2013-08-11 22:19:00,
2013-08-11 17:24:00,68.4,65.7,29.98,NE,52,0.0,4.0,91,0.00,,OVC070,0.47,VWS V14.01,2013-08-11 22:24:00,
2013-08-11 17:29:00,68.4,65.7,29.97,ENE,68,0.0,4.0,91,0.00,,OVC070,0.47,VWS V14.01,2013-08-11 22:29:00,
2013-08-11 17:34:00,68.3,65.6,29.96,NE,39,0.0,1.0,91,0.00,,OVC070,0.47,VWS V14.01,2013-08-11 22:34:00,
2013-08-11 17:39:00,68.1,65.1,29.97,ENE,63,0.0,2.0,90,0.00,,OVC070,0.47,VWS V14.01,2013-08-11 22:39:00,
2013-08-11 17:44:00,68.0,65.0,29.97,ENE,59,0.0,2.0,90,0.00,,OVC070,0.47,VWS V14.01,2013-08-11 22:44:00,
2013-08-11 17:50:00,67.9,64.9,29.97,ENE,67,0.0,2.0,90,0.00,,OVC070,0.47,VWS V14.01,2013-08-11 22:50:00,
2013-08-11 17:55:00,67.8,64.8,29.97,East,86,0.0,2.0,90,0.00,,OVC070,0.47,VWS V14.01,2013-08-11 22:55:00,
2013-08-11 18:00:00,67.8,64.8,29.96,ENE,68,1.0,2.0,90,0.00,,BKN060,0.47,VWS V14.01,2013-08-11 23:00:00,
2013-08-11 18:05:00,67.8,64.8,29.96,ENE,77,0.0,2.0,90,0.00,,BKN060,0.47,VWS V14.01,2013-08-11 23:05:00,
2013-08-11 18:10:00,67.9,64.9,29.95,ENE,65,0.0,2.0,90,0.00,,BKN060,0.47,VWS V14.01,2013-08-11 23:10:00,
2013-08-11 18:15:00,67.9,64.9,29.96,NE,46,0.0,2.0,90,0.00,,BKN060,0.47,VWS V14.01,2013-08-11 23:15:00,
2013-08-11 18:20:00,67.9,64.5,29.96,ENE,69,0.0,2.0,89,0.00,,BKN060,0.47,VWS V14.01,2013-08-11 23:20:00,
2013-08-11 18:25:00,67.8,64.1,29.95,ENE,61,0.0,2.0,88,0.00,,OVC039,0.47,VWS V14.01,2013-08-11 23:25:00,
2013-08-11 18:30:00,67.7,64.3,29.95,ENE,59,0.0,3.0,89,0.00,,OVC039,0.47,VWS V14.01,2013-08-11 23:30:00,
2013-08-11 18:35:00,67.8,64.8,29.95,ENE,77,0.0,4.0,90,0.00,,OVC039,0.47,VWS V14.01,2013-08-11 23:35:00,
2013-08-11 18:40:00,67.7,64.3,29.95,ENE,77,0.0,4.0,89,0.00,,OVC039,0.47,VWS V14.01,2013-08-11 23:40:00,
2013-08-11 18:46:00,67.9,64.9,29.95,NNW,343,0.0,4.0,90,0.00,,OVC039,0.47,VWS V14.01,2013-08-11 23:46:00,
2013-08-11 18:51:00,68.0,65.0,29.95,ENE,69,0.0,4.0,90,0.00,,OVC039,0.47,VWS V14.01,2013-08-11 23:51:00,
2013-08-11 18:56:00,68.1,65.1,29.95,NE,50,0.0,4.0,90,0.00,,OVC039,0.47,VWS V14.01,2013-08-11 23:56:00,
2013-08-11 19:01:00,68.4,65.4,29.95,East,85,0.0,1.0,90,0.00,,OVC075,0.47,VWS V14.01,2013-08-12 00:01:00,
2013-08-11 19:06:00,68.6,64.9,29.95,East,84,0.0,3.0,88,0.00,,OVC075,0.47,VWS V14.01,2013-08-12 00:06:00,
2013-08-11 19:11:00,68.7,65.3,29.95,NE,56,2.0,3.0,89,0.00,,OVC075,0.47,VWS V14.01,2013-08-12 00:11:00,
2013-08-11 19:16:00,68.8,65.4,29.95,ENE,60,0.0,4.0,89,0.00,,OVC075,0.47,VWS V14.01,2013-08-12 00:16:00,
2013-08-11 19:21:00,68.8,65.1,29.95,NW,315,0.0,4.0,88,0.00,,OVC075,0.47,VWS V14.01,2013-08-12 00:21:00,
2013-08-11 19:26:00,68.6,64.9,29.95,North,1,1.0,4.0,88,0.00,,BKN048,0.47,VWS V14.01,2013-08-12 00:26:00,
2013-08-11 19:31:00,68.4,64.7,29.95,NE,56,0.0,0.0,88,0.00,,-RA,0.47,VWS V14.01,2013-08-12 00:31:00,
2013-08-11 19:36:00,68.2,64.2,29.95,ENE,67,0.0,1.0,87,0.00,,-RA,0.47,VWS V14.01,2013-08-12 00:36:00,
2013-08-11 19:41:00,68.1,64.4,29.95,NNE,28,0.0,5.0,88,0.00,,-RA,0.47,VWS V14.01,2013-08-12 00:41:00,
2013-08-11 19:46:00,68.0,64.3,29.95,NE,56,1.0,5.0,88,0.00,,-RA,0.47,VWS V14.01,2013-08-12 00:46:00,
2013-08-11 19:51:00,67.9,64.5,29.95,ENE,69,0.0,6.0,89,0.00,,-RA,0.47,VWS V14.01,2013-08-12 00:51:00,
2013-08-11 19:57:00,67.8,64.4,29.95,ENE,65,0.0,6.0,89,0.00,,-RA,0.47,VWS V14.01,2013-08-12 00:57:00,
2013-08-11 20:02:00,67.7,64.3,29.95,East,81,2.0,5.0,89,0.00,,OVC017,0.47,VWS V14.01,2013-08-12 01:02:00,
2013-08-11 20:07:00,67.7,64.3,29.95,ESE,106,0.0,5.0,89,0.00,,OVC017,0.47,VWS V14.01,2013-08-12 01:07:00,
2013-08-11 20:12:00,67.7,64.7,29.95,ENE,71,0.0,5.0,90,0.00,,OVC017,0.47,VWS V14.01,2013-08-12 01:12:00,
2013-08-11 20:17:00,67.5,64.5,29.95,ESE,102,0.0,5.0,90,0.00,,OVC017,0.47,VWS V14.01,2013-08-12 01:17:00,
2013-08-11 20:22:00,67.4,64.4,29.95,ENE,60,0.0,5.0,90,0.00,,BKN047,0.47,VWS V14.01,2013-08-12 01:22:00,
2013-08-11 20:27:00,67.3,64.3,29.95,NE,46,0.0,5.0,90,0.00,,BKN047,0.47,VWS V14.01,2013-08-12 01:27:00,
2013-08-11 20:32:00,67.1,64.1,29.95,East,96,0.0,0.0,90,0.00,,BKN047,0.47,VWS V14.01,2013-08-12 01:32:00,
2013-08-11 20:38:00,66.9,64.2,29.95,East,79,0.0,0.0,91,0.00,,BKN047,0.47,VWS V14.01,2013-08-12 01:38:00,
2013-08-11 20:43:00,66.8,64.1,29.96,East,81,0.0,0.0,91,0.00,,BKN047,0.47,VWS V14.01,2013-08-12 01:43:00,
2013-08-11 20:48:00,66.7,64.0,29.96,ENE,75,0.0,1.0,91,0.00,,BKN047,0.47,VWS V14.01,2013-08-12 01:48:00,
2013-08-11 20:53:00,66.6,64.2,29.95,ENE,75,0.0,1.0,92,0.00,,BKN047,0.47,VWS V14.01,2013-08-12 01:53:00,
2013-08-11 20:58:00,66.5,64.1,29.95,ENE,75,0.0,1.0,92,0.00,,OVC065,0.47,VWS V14.01,2013-08-12 01:58:00,
2013-08-11 21:03:00,66.3,63.9,29.95,ESE,112,0.0,1.0,92,0.00,,OVC065,0.47,VWS V14.01,2013-08-12 02:03:00,
2013-08-11 21:08:00,66.2,64.1,29.96,ESE,108,0.0,3.0,93,0.00,,OVC065,0.47,VWS V14.01,2013-08-12 02:08:00,
2013-08-11 21:13:00,66.2,64.1,29.96,SE,129,0.0,3.0,93,0.00,,OVC065,0.47,VWS V14.01,2013-08-12 02:13:00,
2013-08-11 21:19:00,66.2,64.1,29.96,East,101,1.0,6.0,93,0.00,,OVC065,0.47,VWS V14.01,2013-08-12 02:19:00,
2013-08-11 21:24:00,66.3,64.2,29.96,ESE,103,2.0,6.0,93,0.00,,OVC065,0.47,VWS V14.01,2013-08-12 02:24:00,
2013-08-11 21:29:00,66.2,64.4,29.96,ESE,103,3.0,6.0,94,0.00,,BKN050,0.47,VWS V14.01,2013-08-12 02:29:00,
2013-08-11 21:34:00,66.2,64.4,29.96,East,98,1.0,7.0,94,0.00,,BKN050,0.47,VWS V14.01,2013-08-12 02:34:00,
2013-08-11 21:39:00,66.1,64.3,29.96,ESE,114,1.0,7.0,94,0.00,,BKN050,0.47,VWS V14.01,2013-08-12 02:39:00,
2013-08-11 21:44:00,66.0,64.2,29.96,ENE,75,2.0,7.0,94,0.00,,BKN050,0.47,VWS V14.01,2013-08-12 02:44:00,
2013-08-11 21:49:00,66.0,64.5,29.96,ENE,74,1.0,7.0,95,0.00,,BKN050,0.47,VWS V14.01,2013-08-12 02:49:00,
2013-08-11 21:54:00,66.0,64.5,29.96,East,92,2.0,7.0,95,0.00,,BKN050,0.47,VWS V14.01,2013-08-12 02:54:00,
2013-08-11 22:00:00,66.0,64.5,29.96,East,98,4.0,7.0,95,0.00,,OVC016,0.47,VWS V14.01,2013-08-12 03:00:00,
2013-08-11 22:05:00,66.0,64.5,29.97,East,101,4.0,4.0,95,0.00,,OVC016,0.47,VWS V14.01,2013-08-12 03:05:00,
2013-08-11 22:10:00,66.0,64.5,29.97,ESE,112,3.0,4.0,95,0.00,,OVC016,0.47,VWS V14.01,2013-08-12 03:10:00,
2013-08-11 22:15:00,66.0,64.5,29.97,ESE,110,5.0,5.0,95,0.00,,OVC016,0.47,VWS V14.01,2013-08-12 03:15:00,
2013-08-11 22:20:00,66.0,64.5,29.97,East,96,4.0,6.0,95,0.00,,OVC060,0.47,VWS V14.01,2013-08-12 03:20:00,
2013-08-11 22:25:00,65.9,64.4,29.97,East,96,4.0,6.0,95,0.00,,OVC060,0.47,VWS V14.01,2013-08-12 03:25:00,
2013-08-11 22:30:00,65.9,64.4,29.96,East,79,3.0,6.0,95,0.00,,OVC060,0.47,VWS V14.01,2013-08-12 03:30:00,
2013-08-11 22:35:00,65.8,64.3,29.97,East,81,0.0,5.0,95,0.00,,OVC060,0.47,VWS V14.01,2013-08-12 03:35:00,
2013-08-11 22:40:00,65.7,64.2,29.97,ESE,104,2.0,5.0,95,0.00,,OVC060,0.47,VWS V14.01,2013-08-12 03:40:00,
2013-08-11 22:45:00,65.6,64.4,29.97,ESE,108,0.0,5.0,96,0.00,,OVC060,0.47,VWS V14.01,2013-08-12 03:45:00,
2013-08-11 22:51:00,65.5,64.3,29.96,ESE,110,1.0,5.0,96,0.00,,OVC060,0.47,VWS V14.01,2013-08-12 03:51:00,
2013-08-11 22:56:00,65.4,64.2,29.96,East,96,2.0,5.0,96,0.00,,OVC060,0.47,VWS V14.01,2013-08-12 03:56:00,
2013-08-11 23:01:00,65.4,64.2,29.97,ESE,113,4.0,4.0,96,0.00,,SCT070,0.47,VWS V14.01,2013-08-12 04:01:00,
2013-08-11 23:02:00,65.3,64.1,29.97,ESE,117,3.0,4.0,96,0.00,,SCT070,0.47,VWS V14.01,2013-08-12 04:02:00,
2013-08-11 23:04:00,65.3,64.1,29.97,ESE,115,2.0,4.0,96,0.00,,SCT070,0.47,VWS V14.01,2013-08-12 04:04:00,
2013-08-11 23:09:00,65.2,64.0,29.96,ESE,103,0.0,4.0,96,0.00,,SCT070,0.47,VWS V14.01,2013-08-12 04:09:00,
2013-08-11 23:14:00,65.1,63.9,29.96,ENE,63,0.0,4.0,96,0.00,,SCT070,0.47,VWS V14.01,2013-08-12 04:14:00,
2013-08-11 23:19:00,65.0,63.8,29.96,ENE,64,0.0,4.0,96,0.00,,SCT070,0.47,VWS V14.01,2013-08-12 04:19:00,
2013-08-11 23:24:00,64.9,63.7,29.97,ENE,63,0.0,4.0,96,0.00,,,0.47,VWS V14.01,2013-08-12 04:24:00,
2013-08-11 23:29:00,64.7,63.5,29.96,ENE,63,0.0,4.0,96,0.00,,,0.47,VWS V14.01,2013-08-12 04:29:00,
2013-08-11 23:35:00,64.6,63.4,29.97,ENE,63,0.0,0.0,96,0.00,,,0.47,VWS V14.01,2013-08-12 04:35:00,
2013-08-11 23:39:00,64.5,63.3,29.96,ENE,63,0.0,0.0,96,0.00,,,0.47,VWS V14.01,2013-08-12 04:39:00,
2013-08-11 23:45:00,64.3,63.4,29.96,ENE,63,0.0,0.0,97,0.00,,,0.47,VWS V14.01,2013-08-12 04:45:00,
2013-08-11 23:49:00,64.3,63.4,29.96,ENE,64,0.0,0.0,97,0.00,,,0.47,VWS V14.01,2013-08-12 04:49:00,
2013-08-11 23:54:00,64.3,63.4,29.96,ENE,64,0.0,0.0,97,0.00,,,0.47,VWS V14.01,2013-08-12 04:54:00,
2013-08-11 23:59:00,64.2,63.3,29.97,ENE,64,0.0,0.0,97,0.00,,,0.47,VWS V14.01,2013-08-12 04:59:00,